Location: Jetmore Oil Field
(38.1181°N, 99.9337°W)
Time: 18:21:16
(UTC+00:00)

ISS - Pass Details

Date: 30 June 2021
Orbit: 419 x 421 km, 51.6° (Epoch: 29 July)

Event Time Altitude Azimuth Distance (km) Brightness Sun altitude
Exits shadow 09:16:18 65° 272° (W) 464 -3.8 -19.0°
Maximum altitude 09:16:38 73° 321° (NW) 441 -3.7 -19.0°
Drops below altitude 10° 09:20:00 10° 47° (NE) 1,500 0.3 -18.6°
Sets 09:22:07 0° 50° (NE) 2,366 1.6 -18.3°
